SCP
-0 0 0 0 0 0 0 0 0 0 0 -0 -0 -0 -0 -0 -0 0 0 0 0 0 0 0 0 0 0 0 0 0 0 0 0 0 0 0 0 0 0 0 0 0 0 0 0 0 0 0 0 0 0 0 0 0
-0 -0 0 0 0 0 0 0 0 0 0 0 0 -0 -0 -0 -0 -0 0 0 0 -0 0 0 0 0 0 0 0 0 0 0 0 0 0 0 0 0 0 0 0 0 0 0 0 0 0 0 0 0 0 0 0 0
0 0 0 0 0 0 0 0 0 0 0 -0 -0 0 0 0 -0 0 -0 0 0 0 0 0 0 0 0 0 0 0 0 0 0 0 0 0 0 0 0 0 0 0 0 0 0 0 0 0 0 0 0 0 0 0
0 0 0 0 0 0 0 0 0 0 0 -0 -0 0 0 0 0 0 0 0 0 0 0 0 0 0 0 0 0 0 0 0 0 0 0 0 0 0 0 0 0 0 0 0 0 0 0 0 0 0 0 0 0 0
0 0 0 0 0 0 0 0 0 0 0 0 0 0 0 0 0 -0 -0 0 0 0 0 0 0 0 0 0 0 0 0 0 0 0 0 0 0 0 0 0 0 0 0 0 0 0 0 -0 0 0 0 0 0 0
0 0 0 0 0 0 0 0 0 0 0 0 0 0 0 0 0 -0 0 0 0 0 0 0 0 0 0 0 0 0 0 0 0 0 0 0 0 0 0 0 0 0 0 0 0 0 0 0 0 0 0 0 0 0
0 0 0 0 0 0 0 0 0 0 0 0 0 0 0 0 0 0 0 0 0 0 0 0 0 0 0 0 0 0 0 0 0 0 0 0 0 0 0 0 0 0 0 0 0 0 0 -0 0 0 0 0 0 0
0 0 0 0 0 0 0 0 0 0 0 0 0 0 0 -0 -0 0 0 0 0 0 0 0 0 0 0 0 0 0 0 0 0 0 0 0 0 0 0 0 0 0 0 0 0 0 0 0 0 0 0 0 0 0
0 0 0 0 0 0 0 0 0 0 0 0 0 0 0 0 0 0 0 0 0 0 0 0 0 0 0 0 0 0 0 0 0 0 0 0 0 0 0 0 0 0 0 0 0 0 0 0 0 0 0 0 0 -0
0 0 0 0 0 0 0 0 0 0 0 0 0 0 0 0 0 0 0 0 0 0 0 0 0 0 0 0 0 0 0 0 0 0 0 0 0 0 0 0 0 0 0 0 0 0 0 0 0 0 0 0 0 -0
0 0 0 0 0 0 0 0 0 0 0 0 0 0 0 0 0 0 0 0 0 0 0 0 0 0 0 0 0 0 0 0 0 0 0 0 0 0 0 0 0 0 0 0 0 0 0 0 0 0 -0 -0 -0 -0
0 0 0 0 0 0 0 0 0 0 0 0 0 0 0 0 0 0 0 0 0 0 0 0 0 0 0 0 0 0 0 0 0 0 0 0 0 0 0 0 0 0 0 0 0 0 0 0 0 -0 -0 -0 -0 -0
0 0 0 0 0 0 0 0 0 0 0 0 0 0 0 0 0 0 0 0 0 0 0 0 0 0 0 0 0 0 0 0 0 0 0 0 0 0 0 0 0 0 0 0 0 -0 0 -0 -0 -0 -0 -0 -0 -0
0 0 0 0 0 0 0 0 0 0 0 0 0 0 0 0 0 0 0 0 0 0 0 0 0 0 0 0 0 0 0 0 0 0 -0 0 0 -0 0 0 0 0 0 0 0 0 -0 -0 -0 -0 -0 -0 0 -0
0 0 0 0 0 0 0 0 0 0 0 0 0 0 0 0 0 0 0 0 0 0 0 0 0 0 0 0 0 0 0 0 0 -0 -0 0 -0 -0 -0 0 0 0 0 0 0 0 -0 0 0 -0 -0 -0 -0 -0
0 0 0 0 0 0 0 0 0 0 0 0 0 0 0 0 0 0 0 0 0 0 0 0 0 0 0 0 0 0 0 0 -0 -0 -0 -0 -0 -0 0 0 0 0 0 0 0 0 -0 0 -0 -0 0 -0 -0 0
0 0 0 0 0 0 0 0 0 0 0 0 0 0 0 0 0 0 0 0 0 0 0 0 0 0 0 0 0 0 0 -0 -0 -0 0 0 -0 0 0 0 -0 0 0 0 0 0 0 0 0 0 -0 -0 0 0
0 0 0 0 0 0 0 0 0 0 0 0 0 0 0 0 0 0 0 0 0 0 0 0 0 0 0 0 0 0 -0 -0 -0 -0 0 -0 0 0 0 -0 -0 0 0 0 0 0 0 -0 0 0 -0 -0 0 -0
0 0 0 0 0 0 0 0 0 0 0 0 0 0 0 0 0 0 0 0 0 0 0 0 0 0 0 0 0 -0 0 -0 0 0 -0 0 0 0 0 -0 0 0 0 0 0 0 -0 0 -0 -0 -0 -0 0 -0
0 0 0 0 0 0 0 0 0 0 0 0 0 0 0 0 0 0 0 0 0 0 0 0 0 0 0 0 0 -0 -0 0 -0 -0 -0 0 -0 -0 -0 0 0 0 0 0 0 -0 -0 0 0 0 0 0 0 0
0 0 0 0 0 0 0 0 0 0 0 0 0 0 0 0 0 0 0 0 0 0 0 0 0 0 0 0 0 -0 -0 -0 -0 -0 -0 -0 0 -0 0 0 0 0 0 0 0 0 0 0 -0 -0 -0 -0 -0 0
0 0 0 0 0 0 0 0 0 0 0 0 0 0 0 0 0 0 0 0 0 0 0 -0 0 0 0 0 0 0 -0 -0 -0 -0 -0 0 0 -0 -0 0 -0 0 -0 -0 0 0 0 -0 -0 -0 -0 0 -0 -0
0 0 0 0 0 0 0 0 0 0 0 0 0 0 0 0 0 0 0 0 -0 0 0 0 0 0 0 -0 -0 0 0 0 0 -0 0 -0 -0 -0 -0 0 0 0 -0 -0 -0 -0 -0 0 -0 -0 -0 -0 0 -0
0 0 0 0 0 0 0 0 0 0 0 0 0 0 0 0 0 0 0 -0 0 0 0 0 0 0 0 -0 -0 0 0 0 -0 0 0 0 -0 0 -0 0 -0 0 0 0 -0 -0 0 0 -0 -0 -0 -0 0 -0
0 0 0 0 0 0 0 0 0 0 0 0 0 0 0 0 0 0 0 0 0 0 0 0 0 0 0 0 0 0 0 0 -0 0 0 0 -0 -0 -0 -0 -0 0 0 0 0 0 0 0 0 0 0 -0 -0 -0
0 0 0 0 0 0 0 0 0 0 0 0 0 0 0 0 0 0 0 0 0 0 0 0 0 0 0 0 0 0 0 0 0 0 0 -0 0 0 -0 -0 0 -0 0 0 0 0 -0 0 -0 -0 -0 -0 -0 -0
0 0 0 0 0 0 0 0 0 0 0 0 0 0 0 0 0 0 0 0 0 0 0 0 0 0 0 0 0 0 0 0 0 -0 -0 0 0 0 -0 -0 -0 0 0 0 0 0 0 -0 -0 -0 -0 -0 0 -0
0 0 0 0 0 0 0 0 0 0 0 0 0 0 0 0 0 0 0 0 0 0 0 0 0 0 0 0 0 0 0 0 0 0 -0 -0 0 0 -0 -0 0 -0 -0 -0 0 0 0 0 0 -0 -0 0 0 0
0 0 0 0 0 0 0 0 0 0 0 0 0 0 0 0 0 0 0 0 0 0 0 0 0 -0 0 0 0 0 0 0 0 0 0 -0 -0 -0 -0 0 0 0 0 -0 0 -0 -0 0 0 0 0 0 0 0
0 0 0 0 0 0 0 0 0 0 0 0 0 0 0 0 -0 -0 0 0 0 0 0 0 0 0 0 0 0 0 0 0 0 -0 0 0 -0 0 0 0 0 0 -0 -0 -0 -0 -0 -0 -0 -0 -0 -0 -0 -0
0 0 0 0 0 0 0 -0 -0 0 0 0 0 0 0 0 0 -0 0 0 0 0 0 0 0 0 0 0 0 0 0 0 0 0 0 -0 -0 0 0 0 0 -0 -0 -0 -0 0 0 0 0 0 0 0 0 0
0 0 0 0 0 0 0 0 0 0 0 0 0 0 0 0 0 0 0 0 0 0 0 0 0 0 0 0 0 0 0 0 -0 0 -0 -0 0 0 0 0 -0 -0 -0 0 0 0 0 0 0 0 0 0 0 0
0 0 0 0 0 0 0 0 0 0 0 0 0 0 0 0 0 0 0 0 0 0 0 0 0 0 0 0 0 0 0 -0 0 0 -0 -0 -0 -0 -0 0 -0 -0 0 0 0 0 0 0 0 0 0 0 0 -0
Wind_Speed_500mb
29 31 30 27 25 23 22 22 23 27 26 26 15 15 21 26 28 25 12 26 11 10 7 4 3 6 5 8 11 14 14 14 13 11 11 13 7 10 8 21 20 21 21 22 23 29 34 28 16 13 26 31 30 39
40 38 34 28 25 24 23 21 22 24 26 18 13 13 18 24 26 22 10 21 17 4 9 7 9 10 6 3 13 7 13 8 13 12 6 7 13 15 14 20 5 16 12 15 17 21 32 43 35 38 40 42 46 50
38 37 35 28 26 24 22 21 21 20 20 14 13 13 18 24 27 23 13 23 13 9 9 7 6 4 2 9 8 15 3 8 8 11 19 10 10 13 19 16 21 13 8 17 24 22 34 56 56 48 39 39 39 42
37 33 34 28 25 25 22 22 21 20 16 12 13 14 18 22 25 19 11 17 16 10 11 12 2 7 8 8 9 14 18 14 17 16 23 15 18 11 16 22 20 28 24 25 34 34 49 46 40 41 42 49 53 50
39 36 33 28 26 25 23 22 21 18 12 10 12 14 17 21 24 17 4 6 21 11 14 10 6 1 1 6 8 10 14 19 23 24 18 17 18 15 23 23 20 21 12 12 21 39 36 52 62 51 56 50 56 58
42 36 32 29 27 25 23 21 22 17 13 12 13 14 16 20 19 10 7 5 19 14 8 5 2 3 5 8 8 8 12 16 22 26 23 16 12 12 12 19 23 26 31 36 38 55 64 66 66 60 55 61 53 60
51 44 35 32 30 26 24 21 18 15 16 15 14 14 15 16 12 7 7 10 30 4 7 8 10 6 3 7 12 11 8 17 20 26 21 24 7 7 14 21 20 37 55 63 60 56 62 61 61 56 57 66 65 68
50 41 38 35 31 27 25 22 19 16 15 15 15 15 14 12 5 5 6 28 9 2 5 7 3 12 2 10 7 2 21 18 10 18 16 8 12 3 7 22 40 52 63 58 47 53 62 65 63 67 68 67 68 68
47 49 42 38 33 29 25 22 19 16 16 13 12 12 9 2 5 8 26 14 3 6 10 7 8 6 3 19 10 1 7 9 5 8 6 7 4 6 10 18 42 59 56 63 68 61 56 50 52 56 63 63 60 59
43 46 45 38 34 29 25 21 18 14 12 10 4 4 8 7 10 20 11 4 7 9 8 10 0 6 8 16 11 13 5 5 5 4 8 8 11 10 15 41 58 62 59 64 60 59 55 57 60 59 50 60 52 48
44 46 48 38 35 29 24 20 15 11 4 3 4 4 6 11 6 5 6 10 9 10 11 3 8 14 4 15 12 3 4 5 5 0 6 5 7 19 19 48 55 59 63 63 55 59 56 58 62 58 60 49 44 40
45 47 47 39 35 30 24 19 15 18 6 11 8 8 6 6 6 9 7 7 10 1 13 8 7 12 6 6 8 1 5 5 4 5 3 7 7 10 26 44 61 61 66 59 52 51 50 56 53 54 45 40 36 35
45 49 43 40 35 30 25 19 17 21 13 4 4 5 6 6 3 11 14 8 7 14 6 11 9 9 3 6 6 5 7 4 6 2 6 8 17 32 47 55 58 63 59 54 58 47 47 54 51 39 38 32 32 29
49 46 42 40 36 32 25 22 20 23 9 9 10 3 10 10 11 6 7 10 15 6 3 7 5 13 4 6 7 7 1 3 5 6 9 11 32 44 52 56 54 57 58 58 60 59 53 50 48 38 29 27 27 27
49 42 39 37 38 34 29 23 26 23 6 9 9 7 14 13 4 2 2 5 10 5 8 13 11 6 5 8 5 4 2 4 8 9 11 29 40 47 57 58 58 57 58 62 59 60 58 45 39 32 24 18 21 23
38 38 42 40 40 37 31 31 33 15 7 8 11 13 9 13 15 14 13 11 5 7 9 7 5 5 6 5 9 5 3 9 4 14 33 38 42 54 58 56 53 49 54 63 53 51 49 37 31 29 21 13 16 19
39 36 40 47 42 35 34 35 24 13 9 8 13 20 19 10 7 2 4 4 5 14 3 7 8 6 7 7 4 9 8 8 28 32 36 38 47 57 53 52 48 50 51 54 55 50 44 36 33 24 24 20 14 18
39 40 48 51 47 41 42 17 13 11 12 18 16 6 12 11 11 13 13 14 12 18 17 11 11 12 11 11 13 1 13 25 26 31 38 43 50 48 45 47 43 41 42 41 56 43 42 39 38 37 32 24 20 13
45 43 52 52 49 35 18 17 11 9 20 10 23 19 17 18 17 19 19 17 17 18 15 13 10 12 14 21 24 24 22 28 32 39 40 40 40 42 41 42 37 39 32 42 42 39 41 46 42 36 34 23 12 9
40 41 46 53 58 13 9 10 15 7 7 10 15 20 20 19 15 14 17 18 20 20 18 10 19 26 26 28 28 29 31 32 35 40 39 39 41 45 43 37 32 36 39 36 32 37 57 58 64 49 25 22 16 5
40 46 50 62 22 9 7 9 12 10 7 11 8 10 15 16 21 21 23 23 25 30 28 34 36 34 27 26 28 27 29 27 31 34 39 41 43 42 40 31 34 34 34 35 34 21 51 67 67 71 46 32 34 28
33 46 52 28 5 8 7 11 5 7 9 8 10 15 13 17 21 22 18 20 26 30 29 32 27 22 21 20 18 18 21 25 27 31 30 29 32 33 27 25 31 37 31 35 28 22 29 45 44 51 67 63 46 40
51 40 18 9 5 6 5 10 8 9 7 5 8 8 12 11 6 9 12 20 20 17 12 13 13 18 19 18 19 11 8 12 17 24 24 27 28 20 16 23 30 32 33 33 25 24 24 26 40 40 44 54 69 86
39 11 8 9 6 8 8 13 12 10 10 12 9 9 9 9 14 10 13 15 6 5 6 11 13 13 8 6 5 10 12 14 17 22 22 24 20 19 23 28 29 27 27 27 26 23 23 25 34 39 41 40 47 58
10 5 7 6 9 11 11 10 12 9 9 13 10 9 5 10 9 8 7 7 8 5 3 7 8 5 11 1 8 7 14 19 22 18 17 21 21 27 23 23 24 27 31 23 24 26 32 34 37 43 47 47 49 45
4 9 15 16 15 12 13 11 12 14 9 7 8 6 8 9 8 5 5 14 9 5 6 6 5 1 1 4 7 8 15 21 18 12 12 16 25 25 23 22 25 32 31 30 29 34 38 46 44 42 40 39 43 46
9 11 15 16 14 13 10 11 12 11 11 11 6 8 6 9 10 7 15 13 8 3 2 9 6 5 7 14 9 10 15 22 13 5 8 16 19 22 23 23 20 31 28 34 38 38 38 37 38 40 47 47 50 49
7 10 15 23 16 22 7 14 11 13 13 8 8 11 6 5 4 8 14 15 8 2 3 7 10 11 10 10 12 12 14 17 3 9 11 14 18 20 23 27 30 30 32 27 33 33 37 38 41 42 43 45 45 45
8 11 11 17 13 7 13 15 11 11 12 15 8 2 4 2 4 8 8 9 10 4 6 7 5 6 7 11 11 6 12 6 18 18 14 15 22 24 24 27 30 36 40 39 39 37 37 38 39 40 40 40 39 39
12 17 11 14 13 11 12 14 8 14 17 19 17 11 9 14 10 11 11 12 15 14 11 10 8 9 10 12 9 7 5 13 29 24 15 21 24 25 27 28 28 29 30 31 31 23 27 32 33 32 31 31 30 31
8 12 7 10 10 15 16 16 16 12 12 17 19 20 19 15 15 15 17 17 18 18 16 14 14 10 11 9 9 5 17 34 36 23 12 20 24 25 24 23 24 25 25 26 27 28 28 28 28 27 27 26 21 20
14 16 11 5 4 6 5 7 11 17 19 21 23 22 20 18 14 14 11 12 16 17 16 14 12 11 12 8 7 11 24 42 43 27 7 20 20 20 19 19 20 20 20 22 23 24 24 24 24 24 24 23 23 24
12 11 12 13 10 5 1 5 5 7 15 24 23 20 18 13 8 5 4 4 8 10 11 11 12 16 15 9 16 19 35 49 33 18 19 26 21 13 10 11 13 12 14 16 19 20 22 21 21 21 20 19 19 18
Wind_Direction_500mb
288 296 303 302 307 312 318 324 331 339 342 342 349 356 6 10 14 23 336 359 23 307 14 10 357 309 277 256 295 59 257 194 264 266 267 297 263 308 295 279 285 279 282 269 264 268 263 44 313 304 344 320 312 311
277 283 293 290 296 303 309 316 326 334 340 344 349 352 359 5 10 18 3 342 342 245 349 289 263 260 232 324 317 298 338 303 347 295 276 297 280 277 259 279 64 266 296 324 311 318 320 321 311 305 306 302 297 295
276 270 274 275 284 290 298 307 316 327 338 338 346 351 357 1 5 13 25 355 1 302 224 207 126 28 219 233 257 281 153 336 276 311 309 303 298 296 280 287 321 297 299 268 299 284 310 310 302 307 317 305 294 285
274 272 266 264 273 281 290 300 306 313 315 323 339 344 349 355 1 10 29 9 13 302 281 123 204 294 239 249 250 257 272 281 271 282 283 288 287 309 284 304 293 290 320 297 281 290 293 285 294 291 291 296 288 288
264 266 264 256 262 270 280 289 298 297 293 316 327 329 334 343 347 348 334 356 13 0 326 336 312 116 94 243 279 277 258 258 266 268 255 260 290 318 290 284 285 12 354 311 294 301 314 307 291 290 290 290 290 288
253 260 258 254 254 260 270 283 294 279 268 299 311 318 324 332 339 26 222 301 351 352 282 263 63 264 245 274 266 259 254 251 255 275 286 298 343 290 294 294 33 12 353 342 310 303 299 293 289 288 294 291 289 289
248 251 246 247 249 254 262 272 287 274 273 279 295 300 310 324 331 281 322 287 322 8 264 258 180 145 270 271 230 255 241 263 264 279 261 287 332 216 268 274 5 339 332 322 307 302 295 293 289 286 283 285 281 286
242 234 236 237 242 246 253 262 277 270 268 275 280 294 306 314 8 334 252 321 330 263 251 273 164 195 305 295 329 259 283 232 245 276 278 306 330 303 267 1 336 317 314 310 303 300 288 289 288 282 280 281 278 280
234 229 228 229 234 238 245 256 269 267 265 268 270 297 311 46 250 243 295 302 218 225 296 251 313 67 347 262 285 160 302 292 357 260 260 252 223 227 260 318 310 305 300 297 301 297 291 285 301 285 280 284 271 273
230 221 218 224 226 231 235 249 259 256 257 275 271 297 217 209 251 306 351 152 200 204 236 272 104 282 339 331 34 319 14 234 238 246 239 225 242 179 247 287 300 307 304 299 293 297 294 291 295 283 284 278 272 265
221 215 210 219 219 223 228 242 238 216 219 128 225 254 269 277 317 241 249 233 157 215 189 245 6 317 81 324 332 333 237 237 259 214 275 261 251 211 241 308 312 313 311 317 296 298 294 289 293 290 289 279 264 258
213 207 206 213 210 213 218 227 226 178 164 216 223 250 287 240 235 251 208 171 232 175 157 281 137 330 338 331 275 20 266 263 276 261 257 249 49 331 288 315 319 319 331 328 317 303 299 299 305 305 289 289 259 254
204 200 209 204 205 206 208 216 217 195 176 225 248 229 238 189 322 228 181 195 195 167 167 205 189 271 156 250 261 231 243 242 245 264 263 297 8 336 329 325 323 321 331 333 333 322 314 310 314 306 291 286 272 252
197 205 202 203 201 200 200 208 195 171 147 218 200 281 230 189 239 217 274 57 84 205 223 325 286 208 235 223 254 229 202 341 278 248 230 345 345 330 327 325 327 328 326 323 329 330 328 324 320 311 295 281 265 254
198 205 199 196 190 189 194 198 177 170 191 227 218 237 213 259 265 217 321 198 178 255 264 301 279 238 176 249 255 253 253 260 243 262 306 327 331 326 326 325 323 328 332 330 328 331 331 327 327 321 307 282 260 251
198 197 202 199 189 186 189 182 180 172 220 237 232 246 227 236 207 186 202 231 156 258 266 5 312 283 219 258 226 221 222 235 276 319 330 321 330 325 325 324 326 326 336 342 335 333 335 334 329 330 321 289 263 249
192 196 199 185 182 181 185 177 171 197 216 233 235 234 256 297 296 342 223 182 195 258 275 252 236 228 240 253 237 181 248 313 315 319 319 328 325 323 324 324 329 331 337 343 339 335 340 339 347 339 340 332 291 255
192 191 183 176 174 176 177 171 182 193 227 236 262 227 230 251 274 259 232 239 241 249 256 263 291 263 251 274 284 125 276 268 304 321 317 321 317 320 325 330 334 340 341 342 347 345 349 355 351 343 332 331 319 277
193 187 179 177 179 160 169 181 183 221 225 236 237 256 249 257 258 260 259 249 243 252 275 265 242 249 247 250 276 295 319 307 321 317 314 314 319 332 333 341 344 353 351 344 348 355 357 348 339 331 336 340 339 348
186 177 175 179 177 162 143 154 183 242 248 227 243 245 244 247 254 233 235 230 224 223 227 234 254 272 290 304 312 309 308 309 308 310 315 325 332 335 339 342 338 342 346 354 8 18 7 14 24 30 30 42 43 60
164 169 178 174 160 137 126 151 188 216 232 247 240 239 248 229 227 238 239 230 227 237 246 248 262 273 284 295 293 290 293 297 300 305 311 316 324 327 336 343 349 351 351 355 10 18 25 23 37 27 36 61 79 72
162 179 168 162 119 117 135 195 199 192 221 237 227 228 253 252 234 226 230 231 241 252 247 251 264 281 285 283 288 283 290 296 301 305 317 319 333 335 346 353 349 354 2 2 13 16 26 27 42 36 46 58 77 87
158 155 123 98 118 164 181 181 213 205 225 217 225 231 223 220 226 181 238 244 238 245 249 255 269 272 272 282 282 281 304 312 321 336 342 340 350 356 357 353 358 359 1 10 27 33 39 40 49 49 50 49 56 53
143 107 125 137 142 147 168 194 208 217 214 223 246 238 242 183 184 231 246 244 267 339 308 281 266 275 284 166 98 61 19 355 355 357 0 1 5 12 2 357 6 10 8 23 39 46 53 53 47 51 57 60 59 65
114 121 132 137 182 181 198 190 197 207 228 210 213 239 188 225 223 242 241 147 150 167 123 137 111 79 165 77 343 356 2 360 353 357 1 21 3 15 11 14 23 17 14 39 53 61 59 61 66 71 69 66 72 76
116 186 183 198 182 189 192 182 199 210 200 176 250 222 213 223 241 237 145 163 163 165 167 155 159 225 278 320 6 351 352 350 349 4 17 13 17 17 21 26 35 31 47 54 67 74 74 71 71 72 79 79 80 82
183 187 193 213 201 201 194 163 185 183 185 215 219 192 220 221 228 115 164 169 178 143 231 220 236 272 303 327 312 325 342 350 339 5 40 25 30 37 43 45 47 51 50 71 70 81 79 75 76 74 74 75 76 76
232 178 178 178 193 206 196 174 192 199 201 208 217 210 213 240 80 139 171 168 158 194 290 262 251 262 275 301 326 316 336 342 10 115 74 75 57 60 62 61 63 75 64 82 76 77 71 81 81 83 84 83 82 80
211 199 173 181 188 197 205 189 218 227 216 210 224 359 316 27 137 144 150 185 211 255 285 285 259 255 286 305 315 318 342 320 122 113 99 79 78 75 78 79 77 75 77 79 83 86 85 85 85 85 84 83 81 80
183 182 204 185 199 214 218 203 220 213 214 209 208 199 248 240 231 231 243 236 230 237 248 267 280 283 298 304 295 318 57 137 132 126 114 100 95 94 90 89 88 86 83 80 79 86 81 79 81 80 80 81 81 82
165 193 226 223 215 226 228 215 212 213 238 243 232 237 239 247 253 254 255 244 238 245 258 259 268 286 295 293 286 240 160 148 136 143 108 116 106 101 98 95 92 89 86 82 80 78 76 75 75 74 73 74 71 72
192 208 215 249 291 178 211 236 236 225 231 231 235 237 236 230 242 262 222 235 241 243 248 254 268 280 280 271 231 182 168 158 138 143 63 129 120 112 107 100 95 92 89 85 82 77 72 75 82 83 83 78 81 83
209 191 213 238 229 205 158 222 245 233 218 213 225 235 244 224 214 219 234 239 216 232 252 265 263 254 251 199 165 152 150 149 153 139 118 129 137 127 124 121 114 105 97 85 82 86 85 79 81 77 72 72 76 78
Wind_Speed_850mb
29 31 30 27 25 23 22 22 23 27 26 26 15 15 21 26 28 25 12 26 11 10 7 4 3 6 5 8 11 14 14 14 13 11 11 13 7 10 8 21 20 21 21 22 23 29 34 28 16 13 26 31 30 39
40 38 34 28 25 24 23 21 22 24 26 18 13 13 18 24 26 22 10 21 17 4 9 7 9 10 6 3 13 7 13 8 13 12 6 7 13 15 14 20 5 16 12 15 17 21 32 43 35 38 40 42 46 50
38 37 35 28 26 24 22 21 21 20 20 14 13 13 18 24 27 23 13 23 13 9 9 7 6 4 2 9 8 15 3 8 8 11 19 10 10 13 19 16 21 13 8 17 24 22 34 56 56 48 39 39 39 42
37 33 34 28 25 25 22 22 21 20 16 12 13 14 18 22 25 19 11 17 16 10 11 12 2 7 8 8 9 14 18 14 17 16 23 15 18 11 16 22 20 28 24 25 34 34 49 46 40 41 42 49 53 50
39 36 33 28 26 25 23 22 21 18 12 10 12 14 17 21 24 17 4 6 21 11 14 10 6 1 1 6 8 10 14 19 23 24 18 17 18 15 23 23 20 21 12 12 21 39 36 52 62 51 56 50 56 58
42 36 32 29 27 25 23 21 22 17 13 12 13 14 16 20 19 10 7 5 19 14 8 5 2 3 5 8 8 8 12 16 22 26 23 16 12 12 12 19 23 26 31 36 38 55 64 66 66 60 55 61 53 60
51 44 35 32 30 26 24 21 18 15 16 15 14 14 15 16 12 7 7 10 30 4 7 8 10 6 3 7 12 11 8 17 20 26 21 24 7 7 14 21 20 37 55 63 60 56 62 61 61 56 57 66 65 68
50 41 38 35 31 27 25 22 19 16 15 15 15 15 14 12 5 5 6 28 9 2 5 7 3 12 2 10 7 2 21 18 10 18 16 8 12 3 7 22 40 52 63 58 47 53 62 65 63 67 68 67 68 68
47 49 42 38 33 29 25 22 19 16 16 13 12 12 9 2 5 8 26 14 3 6 10 7 8 6 3 19 10 1 7 9 5 8 6 7 4 6 10 18 42 59 56 63 68 61 56 50 52 56 63 63 60 59
43 46 45 38 34 29 25 21 18 14 12 10 4 4 8 7 10 20 11 4 7 9 8 10 0 6 8 16 11 13 5 5 5 4 8 8 11 10 15 41 58 62 59 64 60 59 55 57 60 59 50 60 52 48
44 46 48 38 35 29 24 20 15 11 4 3 4 4 6 11 6 5 6 10 9 10 11 3 8 14 4 15 12 3 4 5 5 0 6 5 7 19 19 48 55 59 63 63 55 59 56 58 62 58 60 49 44 40
45 47 47 39 35 30 24 19 15 18 6 11 8 8 6 6 6 9 7 7 10 1 13 8 7 12 6 6 8 1 5 5 4 5 3 7 7 10 26 44 61 61 66 59 52 51 50 56 53 54 45 40 36 35
45 49 43 40 35 30 25 19 17 21 13 4 4 5 6 6 3 11 14 8 7 14 6 11 9 9 3 6 6 5 7 4 6 2 6 8 17 32 47 55 58 63 59 54 58 47 47 54 51 39 38 32 32 29
49 46 42 40 36 32 25 22 20 23 9 9 10 3 10 10 11 6 7 10 15 6 3 7 5 13 4 6 7 7 1 3 5 6 9 11 32 44 52 56 54 57 58 58 60 59 53 50 48 38 29 27 27 27
49 42 39 37 38 34 29 23 26 23 6 9 9 7 14 13 4 2 2 5 10 5 8 13 11 6 5 8 5 4 2 4 8 9 11 29 40 47 57 58 58 57 58 62 59 60 58 45 39 32 24 18 21 23
38 38 42 40 40 37 31 31 33 15 7 8 11 13 9 13 15 14 13 11 5 7 9 7 5 5 6 5 9 5 3 9 4 14 33 38 42 54 58 56 53 49 54 63 53 51 49 37 31 29 21 13 16 19
39 36 40 47 42 35 34 35 24 13 9 8 13 20 19 10 7 2 4 4 5 14 3 7 8 6 7 7 4 9 8 8 28 32 36 38 47 57 53 52 48 50 51 54 55 50 44 36 33 24 24 20 14 18
39 40 48 51 47 41 42 17 13 11 12 18 16 6 12 11 11 13 13 14 12 18 17 11 11 12 11 11 13 1 13 25 26 31 38 43 50 48 45 47 43 41 42 41 56 43 42 39 38 37 32 24 20 13
45 43 52 52 49 35 18 17 11 9 20 10 23 19 17 18 17 19 19 17 17 18 15 13 10 12 14 21 24 24 22 28 32 39 40 40 40 42 41 42 37 39 32 42 42 39 41 46 42 36 34 23 12 9
40 41 46 53 58 13 9 10 15 7 7 10 15 20 20 19 15 14 17 18 20 20 18 10 19 26 26 28 28 29 31 32 35 40 39 39 41 45 43 37 32 36 39 36 32 37 57 58 64 49 25 22 16 5
40 46 50 62 22 9 7 9 12 10 7 11 8 10 15 16 21 21 23 23 25 30 28 34 36 34 27 26 28 27 29 27 31 34 39 41 43 42 40 31 34 34 34 35 34 21 51 67 67 71 46 32 34 28
33 46 52 28 5 8 7 11 5 7 9 8 10 15 13 17 21 22 18 20 26 30 29 32 27 22 21 20 18 18 21 25 27 31 30 29 32 33 27 25 31 37 31 35 28 22 29 45 44 51 67 63 46 40
51 40 18 9 5 6 5 10 8 9 7 5 8 8 12 11 6 9 12 20 20 17 12 13 13 18 19 18 19 11 8 12 17 24 24 27 28 20 16 23 30 32 33 33 25 24 24 26 40 40 44 54 69 86
39 11 8 9 6 8 8 13 12 10 10 12 9 9 9 9 14 10 13 15 6 5 6 11 13 13 8 6 5 10 12 14 17 22 22 24 20 19 23 28 29 27 27 27 26 23 23 25 34 39 41 40 47 58
10 5 7 6 9 11 11 10 12 9 9 13 10 9 5 10 9 8 7 7 8 5 3 7 8 5 11 1 8 7 14 19 22 18 17 21 21 27 23 23 24 27 31 23 24 26 32 34 37 43 47 47 49 45
4 9 15 16 15 12 13 11 12 14 9 7 8 6 8 9 8 5 5 14 9 5 6 6 5 1 1 4 7 8 15 21 18 12 12 16 25 25 23 22 25 32 31 30 29 34 38 46 44 42 40 39 43 46
9 11 15 16 14 13 10 11 12 11 11 11 6 8 6 9 10 7 15 13 8 3 2 9 6 5 7 14 9 10 15 22 13 5 8 16 19 22 23 23 20 31 28 34 38 38 38 37 38 40 47 47 50 49
7 10 15 23 16 22 7 14 11 13 13 8 8 11 6 5 4 8 14 15 8 2 3 7 10 11 10 10 12 12 14 17 3 9 11 14 18 20 23 27 30 30 32 27 33 33 37 38 41 42 43 45 45 45
8 11 11 17 13 7 13 15 11 11 12 15 8 2 4 2 4 8 8 9 10 4 6 7 5 6 7 11 11 6 12 6 18 18 14 15 22 24 24 27 30 36 40 39 39 37 37 38 39 40 40 40 39 39
12 17 11 14 13 11 12 14 8 14 17 19 17 11 9 14 10 11 11 12 15 14 11 10 8 9 10 12 9 7 5 13 29 24 15 21 24 25 27 28 28 29 30 31 31 23 27 32 33 32 31 31 30 31
8 12 7 10 10 15 16 16 16 12 12 17 19 20 19 15 15 15 17 17 18 18 16 14 14 10 11 9 9 5 17 34 36 23 12 20 24 25 24 23 24 25 25 26 27 28 28 28 28 27 27 26 21 20
14 16 11 5 4 6 5 7 11 17 19 21 23 22 20 18 14 14 11 12 16 17 16 14 12 11 12 8 7 11 24 42 43 27 7 20 20 20 19 19 20 20 20 22 23 24 24 24 24 24 24 23 23 24
12 11 12 13 10 5 1 5 5 7 15 24 23 20 18 13 8 5 4 4 8 10 11 11 12 16 15 9 16 19 35 49 33 18 19 26 21 13 10 11 13 12 14 16 19 20 22 21 21 21 20 19 19 18
Wind_Direction_850mb
288 296 303 302 307 312 318 324 331 339 342 342 349 356 6 10 14 23 336 359 23 307 14 10 357 309 277 256 295 59 257 194 264 266 267 297 263 308 295 279 285 279 282 269 264 268 263 44 313 304 344 320 312 311
277 283 293 290 296 303 309 316 326 334 340 344 349 352 359 5 10 18 3 342 342 245 349 289 263 260 232 324 317 298 338 303 347 295 276 297 280 277 259 279 64 266 296 324 311 318 320 321 311 305 306 302 297 295
276 270 274 275 284 290 298 307 316 327 338 338 346 351 357 1 5 13 25 355 1 302 224 207 126 28 219 233 257 281 153 336 276 311 309 303 298 296 280 287 321 297 299 268 299 284 310 310 302 307 317 305 294 285
274 272 266 264 273 281 290 300 306 313 315 323 339 344 349 355 1 10 29 9 13 302 281 123 204 294 239 249 250 257 272 281 271 282 283 288 287 309 284 304 293 290 320 297 281 290 293 285 294 291 291 296 288 288
264 266 264 256 262 270 280 289 298 297 293 316 327 329 334 343 347 348 334 356 13 0 326 336 312 116 94 243 279 277 258 258 266 268 255 260 290 318 290 284 285 12 354 311 294 301 314 307 291 290 290 290 290 288
253 260 258 254 254 260 270 283 294 279 268 299 311 318 324 332 339 26 222 301 351 352 282 263 63 264 245 274 266 259 254 251 255 275 286 298 343 290 294 294 33 12 353 342 310 303 299 293 289 288 294 291 289 289
248 251 246 247 249 254 262 272 287 274 273 279 295 300 310 324 331 281 322 287 322 8 264 258 180 145 270 271 230 255 241 263 264 279 261 287 332 216 268 274 5 339 332 322 307 302 295 293 289 286 283 285 281 286
242 234 236 237 242 246 253 262 277 270 268 275 280 294 306 314 8 334 252 321 330 263 251 273 164 195 305 295 329 259 283 232 245 276 278 306 330 303 267 1 336 317 314 310 303 300 288 289 288 282 280 281 278 280
234 229 228 229 234 238 245 256 269 267 265 268 270 297 311 46 250 243 295 302 218 225 296 251 313 67 347 262 285 160 302 292 357 260 260 252 223 227 260 318 310 305 300 297 301 297 291 285 301 285 280 284 271 273
230 221 218 224 226 231 235 249 259 256 257 275 271 297 217 209 251 306 351 152 200 204 236 272 104 282 339 331 34 319 14 234 238 246 239 225 242 179 247 287 300 307 304 299 293 297 294 291 295 283 284 278 272 265
221 215 210 219 219 223 228 242 238 216 219 128 225 254 269 277 317 241 249 233 157 215 189 245 6 317 81 324 332 333 237 237 259 214 275 261 251 211 241 308 312 313 311 317 296 298 294 289 293 290 289 279 264 258
213 207 206 213 210 213 218 227 226 178 164 216 223 250 287 240 235 251 208 171 232 175 157 281 137 330 338 331 275 20 266 263 276 261 257 249 49 331 288 315 319 319 331 328 317 303 299 299 305 305 289 289 259 254
204 200 209 204 205 206 208 216 217 195 176 225 248 229 238 189 322 228 181 195 195 167 167 205 189 271 156 250 261 231 243 242 245 264 263 297 8 336 329 325 323 321 331 333 333 322 314 310 314 306 291 286 272 252
197 205 202 203 201 200 200 208 195 171 147 218 200 281 230 189 239 217 274 57 84 205 223 325 286 208 235 223 254 229 202 341 278 248 230 345 345 330 327 325 327 328 326 323 329 330 328 324 320 311 295 281 265 254
198 205 199 196 190 189 194 198 177 170 191 227 218 237 213 259 265 217 321 198 178 255 264 301 279 238 176 249 255 253 253 260 243 262 306 327 331 326 326 325 323 328 332 330 328 331 331 327 327 321 307 282 260 251
198 197 202 199 189 186 189 182 180 172 220 237 232 246 227 236 207 186 202 231 156 258 266 5 312 283 219 258 226 221 222 235 276 319 330 321 330 325 325 324 326 326 336 342 335 333 335 334 329 330 321 289 263 249
192 196 199 185 182 181 185 177 171 197 216 233 235 234 256 297 296 342 223 182 195 258 275 252 236 228 240 253 237 181 248 313 315 319 319 328 325 323 324 324 329 331 337 343 339 335 340 339 347 339 340 332 291 255
192 191 183 176 174 176 177 171 182 193 227 236 262 227 230 251 274 259 232 239 241 249 256 263 291 263 251 274 284 125 276 268 304 321 317 321 317 320 325 330 334 340 341 342 347 345 349 355 351 343 332 331 319 277
193 187 179 177 179 160 169 181 183 221 225 236 237 256 249 257 258 260 259 249 243 252 275 265 242 249 247 250 276 295 319 307 321 317 314 314 319 332 333 341 344 353 351 344 348 355 357 348 339 331 336 340 339 348
186 177 175 179 177 162 143 154 183 242 248 227 243 245 244 247 254 233 235 230 224 223 227 234 254 272 290 304 312 309 308 309 308 310 315 325 332 335 339 342 338 342 346 354 8 18 7 14 24 30 30 42 43 60
164 169 178 174 160 137 126 151 188 216 232 247 240 239 248 229 227 238 239 230 227 237 246 248 262 273 284 295 293 290 293 297 300 305 311 316 324 327 336 343 349 351 351 355 10 18 25 23 37 27 36 61 79 72
162 179 168 162 119 117 135 195 199 192 221 237 227 228 253 252 234 226 230 231 241 252 247 251 264 281 285 283 288 283 290 296 301 305 317 319 333 335 346 353 349 354 2 2 13 16 26 27 42 36 46 58 77 87
158 155 123 98 118 164 181 181 213 205 225 217 225 231 223 220 226 181 238 244 238 245 249 255 269 272 272 282 282 281 304 312 321 336 342 340 350 356 357 353 358 359 1 10 27 33 39 40 49 49 50 49 56 53
143 107 125 137 142 147 168 194 208 217 214 223 246 238 242 183 184 231 246 244 267 339 308 281 266 275 284 166 98 61 19 355 355 357 0 1 5 12 2 357 6 10 8 23 39 46 53 53 47 51 57 60 59 65
114 121 132 137 182 181 198 190 197 207 228 210 213 239 188 225 223 242 241 147 150 167 123 137 111 79 165 77 343 356 2 360 353 357 1 21 3 15 11 14 23 17 14 39 53 61 59 61 66 71 69 66 72 76
116 186 183 198 182 189 192 182 199 210 200 176 250 222 213 223 241 237 145 163 163 165 167 155 159 225 278 320 6 351 352 350 349 4 17 13 17 17 21 26 35 31 47 54 67 74 74 71 71 72 79 79 80 82
183 187 193 213 201 201 194 163 185 183 185 215 219 192 220 221 228 115 164 169 178 143 231 220 236 272 303 327 312 325 342 350 339 5 40 25 30 37 43 45 47 51 50 71 70 81 79 75 76 74 74 75 76 76
232 178 178 178 193 206 196 174 192 199 201 208 217 210 213 240 80 139 171 168 158 194 290 262 251 262 275 301 326 316 336 342 10 115 74 75 57 60 62 61 63 75 64 82 76 77 71 81 81 83 84 83 82 80
211 199 173 181 188 197 205 189 218 227 216 210 224 359 316 27 137 144 150 185 211 255 285 285 259 255 286 305 315 318 342 320 122 113 99 79 78 75 78 79 77 75 77 79 83 86 85 85 85 85 84 83 81 80
183 182 204 185 199 214 218 203 220 213 214 209 208 199 248 240 231 231 243 236 230 237 248 267 280 283 298 304 295 318 57 137 132 126 114 100 95 94 90 89 88 86 83 80 79 86 81 79 81 80 80 81 81 82
165 193 226 223 215 226 228 215 212 213 238 243 232 237 239 247 253 254 255 244 238 245 258 259 268 286 295 293 286 240 160 148 136 143 108 116 106 101 98 95 92 89 86 82 80 78 76 75 75 74 73 74 71 72
192 208 215 249 291 178 211 236 236 225 231 231 235 237 236 230 242 262 222 235 241 243 248 254 268 280 280 271 231 182 168 158 138 143 63 129 120 112 107 100 95 92 89 85 82 77 72 75 82 83 83 78 81 83
209 191 213 238 229 205 158 222 245 233 218 213 225 235 244 224 214 219 234 239 216 232 252 265 263 254 251 199 165 152 150 149 153 139 118 129 137 127 124 121 114 105 97 85 82 86 85 79 81 77 72 72 76 78